Weather History for LTCJ - June, 2013

Change the Weather History Date:

Tuesday, June 25, 2013

  Actual Average (LTCC) Record (LTCC)
Temperature  
Mean Temperature 80 °F -  
Max Temperature 100 °F 94 °F 100 °F (2002)
Min Temperature 60 °F 66 °F 57 °F (2010)
Cooling Degree Days 15    
Growing Degree Days 30 (Base 50)    
Moisture  
Dew Point 43 °F    
Average Humidity 29    
Maximum Humidity 68    
Minimum Humidity 12    
Precipitation  
Precipitation 0.00 in - - ()
Sea Level Pressure  
Sea Level Pressure 29.64 in    
Wind  
Wind Speed 5 mph ()    
Max Wind Speed 13 mph    
Max Gust Speed -    
Visibility 6.2 miles    
Events      
Averages and records for this station are not official NWS values.
T = Trace of Precipitation, MM = Missing Value Source: Averaged Metar Reports

Daily Weather History Graph

Daily Weather History Graph

Search for Another Location

Airport or City:

Trip Planner

Search our weather history database for the weather conditions in past years. The results will help you decide how hot, cold, wet, or windy it might be!

Date:

Astronomy

Jun. 25, 2013 Rise Set
Actual Time 4:54 AM EEST 7:41 PM EEST
Civil Twilight 4:23 AM EEST 8:13 PM EEST
Nautical Twilight 3:43 AM EEST 8:52 PM EEST
Astronomical Twilight 2:58 AM EEST 9:37 PM EEST
Moon 9:15 PM EEST (6/25) 7:05 AM EEST (6/25)
Length of Visible Light 15h 50m
Length of Day
14h 47m
Waning Gibbous, 94% of the Moon is Illuminated
Jun 25
Waning Gibbous
Jun 30
Last Quarter
Jul 8
New
Jul 16
First Quarter
Jul 22
Full

Hourly Weather History & Observations

Time (EEST) Temp. Dew Point Humidity Pressure Visibility Wind Dir Wind Speed Gust Speed Precip Events Conditions
12:20 AM 78.8 °F 35.6 °F 21% 29.65 in - Calm Calm - N/A   Clear
12:50 AM 77.0 °F 37.4 °F 24% 29.65 in - South 6.9 mph - N/A   Clear
1:20 AM 77.0 °F 37.4 °F 24% 29.65 in - South 6.9 mph - N/A   Clear
1:50 AM 64.4 °F 48.2 °F 56% 29.65 in - NNE 9.2 mph - N/A   Clear
2:20 AM 62.6 °F 50.0 °F 63% 29.65 in - NNE 9.2 mph - N/A   Clear
2:50 AM 64.4 °F 46.4 °F 52% 29.65 in - NNE 6.9 mph - N/A   Clear
3:20 AM 66.2 °F 44.6 °F 46% 29.65 in - ENE 6.9 mph - N/A   Clear
3:50 AM 60.8 °F 48.2 °F 63% 29.65 in - NE 4.6 mph - N/A   Clear
4:20 AM 60.8 °F 50.0 °F 68% 29.65 in - North 4.6 mph - N/A   Clear
4:50 AM 60.8 °F 48.2 °F 63% 29.65 in - NNE 4.6 mph - N/A   Clear
5:20 AM 62.6 °F 46.4 °F 55% 29.68 in - NNE 2.3 mph - N/A   Clear
5:50 AM 62.6 °F 50.0 °F 63% 29.68 in - North 2.3 mph - N/A   Clear
6:20 AM 66.2 °F 48.2 °F 52% 29.68 in - Variable 1.2 mph - N/A   Clear
6:50 AM 69.8 °F 48.2 °F 46% 29.68 in - Variable 1.2 mph - N/A   Clear
7:20 AM 73.4 °F 48.2 °F 41% 29.68 in - Variable 2.3 mph - N/A   Clear
7:50 AM 77.0 °F 41.0 °F 28% 29.68 in - SSW 3.5 mph - N/A   Clear
8:20 AM 78.8 °F 44.6 °F 30% 29.68 in - West 4.6 mph - N/A   Clear
8:50 AM 82.4 °F 46.4 °F 28% 29.68 in - SSW 4.6 mph - N/A   Clear
9:20 AM 84.2 °F 46.4 °F 27% 29.68 in - WSW 4.6 mph - N/A   Clear
9:50 AM 87.8 °F 44.6 °F 22% 29.68 in - WSW 5.8 mph - N/A   Clear
10:20 AM 89.6 °F 39.2 °F 17% 29.68 in - WSW 4.6 mph - N/A   Clear
10:50 AM 93.2 °F 44.6 °F 19% 29.68 in - SSW 5.8 mph - N/A   Clear
11:20 AM 95.0 °F 42.8 °F 16% 29.65 in - SW 5.8 mph - N/A   Clear
11:50 AM 95.0 °F 39.2 °F 14% 29.65 in - SSW 6.9 mph - N/A   Clear
12:20 PM 96.8 °F 41.0 °F 15% 29.65 in - SW 4.6 mph - N/A   Clear
12:50 PM 98.6 °F 39.2 °F 13% 29.65 in 6.2 mi SSW 6.9 mph - N/A   Partly Cloudy
1:20 PM 98.6 °F 37.4 °F 12% 29.65 in 6.2 mi SSW 6.9 mph - N/A   Partly Cloudy
1:50 PM 98.6 °F 39.2 °F 13% 29.62 in 6.2 mi SSW 10.4 mph - N/A   Partly Cloudy
2:20 PM 98.6 °F 39.2 °F 13% 29.62 in 6.2 mi SSW 10.4 mph - N/A   Partly Cloudy
2:50 PM 100.4 °F 39.2 °F 12% 29.62 in 6.2 mi SSW 10.4 mph - N/A   Partly Cloudy
3:20 PM 98.6 °F 41.0 °F 14% 29.62 in 6.2 mi SSW 11.5 mph - N/A   Partly Cloudy
3:50 PM 98.6 °F 42.8 °F 15% 29.62 in 6.2 mi SSW 11.5 mph - N/A   Partly Cloudy
4:20 PM 98.6 °F 44.6 °F 16% 29.59 in 6.2 mi SSW 10.4 mph - N/A   Partly Cloudy
4:50 PM 96.8 °F 42.8 °F 16% 29.59 in 6.2 mi SSW 11.5 mph - N/A   Partly Cloudy
5:20 PM 96.8 °F 41.0 °F 15% 29.59 in 6.2 mi SSW 12.7 mph - N/A   Partly Cloudy
5:50 PM 95.0 °F 42.8 °F 16% 29.59 in 6.2 mi SSW 9.2 mph - N/A   Partly Cloudy
6:20 PM 96.8 °F 39.2 °F 14% 29.59 in - West 4.6 mph - N/A   Clear
6:50 PM 95.0 °F 37.4 °F 13% 29.59 in - West 5.8 mph - N/A   Clear
7:20 PM 91.4 °F 35.6 °F 14% 29.62 in - NNW 4.6 mph - N/A   Clear
7:50 PM 86.0 °F 35.6 °F 17% 29.62 in - North 4.6 mph - N/A   Clear
8:20 PM 82.4 °F 37.4 °F 20% 29.62 in - NE 9.2 mph - N/A   Clear
8:50 PM 78.8 °F 41.0 °F 26% 29.62 in - NNE 8.1 mph - N/A   Clear
9:20 PM 78.8 °F 39.2 °F 24% 29.62 in - East 5.8 mph - N/A   Clear
9:50 PM 77.0 °F 44.6 °F 32% 29.65 in - Variable 2.3 mph - N/A   Clear
10:20 PM 73.4 °F 46.4 °F 38% 29.65 in - SW 3.5 mph - N/A   Clear
10:50 PM 73.4 °F 41.0 °F 31% 29.65 in - South 5.8 mph - N/A   Clear
11:20 PM 75.2 °F 41.0 °F 29% 29.65 in - SSW 3.5 mph - N/A   Clear
11:50 PM 71.6 °F 41.0 °F 33% 29.65 in - South 5.8 mph - N/A   Clear